Lexington Weather

Lexington, Massachusetts, USA

36°F
1/28/2020 6:55am 
  • Lexington Conditions: Overcast
  • Temperature: 35.8°F / 2.1°CColder 0.5°F than last hour.
  • Dew Point: 29.3°FDecreased 0.5°Fsince last hour.
  • Relative Humidity: 77
  • Wind: Wind from NW NW 3 mph, 10-min avg: 1 mph, gust: 4 mph
  • Barometer: 29.66 inRising 0.02  inHg/hr Rising Slowly
  • Visibility: 10 miles
  • Rain Today: 0.00 in
  •   

Regional Weather Roundup
for Boston / Norton, MA

        
000
ASUS41 KBOX 280700
RWRBOX

REGIONAL WEATHER ROUNDUP
NATIONAL WEATHER SERVICE BOSTON/NORTON MA
200 AM EST TUE JAN 28 2020

NOTE:  "FAIR" INDICATES FEW OR NO CLOUDS BELOW 12,000 FEET WITH NO 
SIGNIFICANT WEATHER AND/OR OBSTRUCTIONS TO VISIBILITY.

MAZALL-280800-
EASTERN MASSACHUSETTS
  
CITY           SKY/WX    TMP DP  RH WIND       PRES   REMARKS
BOSTON         MOCLDY    41  27  57 W9        29.64R                  
BEVERLY        CLOUDY    38  28  67 W3        29.63R                  
LAWRENCE       CLOUDY    37  27  67 W6        29.65R                  
BEDFORD        CLOUDY    37  26  64 W6        29.63S                  
BLUE HILL        N/A     34  27  75 NW8       29.62R WCI  27          
NORWOOD        CLOUDY    41  27  57 W6        29.65R                  
MARSHFIELD     NOT AVBL                                               
PLYMOUTH       CLOUDY    36  28  73 W7        29.64R WCI  30          
TAUNTON        CLOUDY    37  27  67 W5        29.65R                  
NEW BEDFORD    CLOUDY    37  27  67 W8        29.65R WCI  31          
$$

MAZALL-280800-
CAPE COD AND THE ISLANDS
  
CITY           SKY/WX    TMP DP  RH WIND       PRES   REMARKS
FALMOUTH       NOT AVBL                                               
HYANNIS        NOT AVBL                                               
CHATHAM        CLOUDY    39  29  67 NW8       29.63R                  
PROVINCETOWN   CLOUDY    40  32  73 NW13G20   29.63S                  
NANTUCKET      CLOUDY    40  30  67 NW13      29.63S                  
MARTHAS VNYRD  CLOUDY    39  29  67 NW8       29.64S                  
$$
 
MAZALL-280800-
CENTRAL AND WESTERN MASSACHUSETTS
  
CITY           SKY/WX    TMP DP  RH WIND       PRES   REMARKS
WORCESTER      CLOUDY    33  23  66 W12       29.62R WCI  24          
FITCHBURG      FAIR      35  25  66 NW7       29.65R WCI  29          
ORANGE         CLOUDY    36  25  64 NW7       29.67R WCI  30          
SPRINGFIELD    NOT AVBL                                               
WESTFIELD      CLOUDY    36  26  67 W10       29.67S WCI  28          
NORTH ADAMS    CLOUDY    34  26  72 W6        29.68S WCI  29          
PITTSFIELD     CLOUDY    32  26  78 W8        29.66R WCI  25          
$$
 
RIZALL-280800-
RHODE ISLAND
  
CITY           SKY/WX    TMP DP  RH WIND       PRES   REMARKS
PROVIDENCE     CLOUDY    38  27  64 W5        29.67R                  
NEWPORT        CLOUDY    38  27  64 W8        29.66R                  
BLOCK ISLAND   CLOUDY    38  27  64 NW8G17    29.68S                  
SMITHFIELD     CLOUDY    36  25  64 NW8       29.65R WCI  30          
WESTERLY       CLOUDY    40  26  57 VRB7      29.69R                  
$$
 
CTZALL-280800-
CONNECTICUT
  
CITY           SKY/WX    TMP DP  RH WIND       PRES   REMARKS
BRADLEY INTL   MOCLDY    36  26  67 W7        29.68S WCI  30          
HARTFORD       CLOUDY    39  26  59 W7        29.70R                  
BRIDGEPORT     CLOUDY    40  27  59 NW8       29.72R                  
DANBURY        CLOUDY    36  24  62 NW3       29.72S                  
GROTON         NOT AVBL                                               
NEW HAVEN      CLOUDY    40  30  67 VRB3      29.72R                  
CHESTER        NOT AVBL                                               
MERIDEN        CLOUDY    38  25  59 W8        29.71R                  
WILLIMANTIC    CLOUDY    35  26  69 W5        29.69R WCI  31          
OXFORD         CLOUDY    35  27  72 VRB5      29.70R WCI  31          
$$

MEZ002-015-021-024-NHZ003-005-008-011-012-014-VTZ005-008-280800-
NORTHERN NEW ENGLAND
  
CITY           SKY/WX    TMP DP  RH WIND       PRES   REMARKS
PORTLAND ME    CLOUDY    35  27  72 W5        29.61R WCI  31          
BANGOR ME      CLOUDY    31  26  82 NW5       29.59R WCI  26          
CONCORD NH     CLOUDY    34  25  69 NW7       29.63R WCI  28          
MANCHESTER NH  CLOUDY    38  27  64 NW6       29.63R                  
NASHUA NH      CLOUDY    34  29  82 NW5       29.65R WCI  30          
PORTSMOUTH NH  NOT AVBL                                               
JAFFREY NH     CLOUDY    34  25  69 W5        29.63R WCI  30          
KEENE NH       CLOUDY    34  27  75 CALM      29.66R                  
BURLINGTON VT  CLOUDY    32  29  88 NW8       29.70R WCI  25          
MT. WASHINGTON SNOW       9   9 100 NW44G55     N/A  VSB 1/16WCI -18  
$$

NYZ052-076-280800-
EASTERN NEW YORK
  
CITY           SKY/WX    TMP DP  RH WIND       PRES   REMARKS
ALBANY         CLOUDY    36  26  67 VRB5      29.72R                  
NEW YORK CITY  CLOUDY    39  24  55 NW12      29.75R WCI  32          
$$
 
ANZALL-280800-
MARINE OBSERVATIONS
  
STATION/POSITION TIME  TEMP    WIND        PRES    VSBY  WAVE
                       AIR SEA DIR/SP/G                  HT/PER
                 (UTC) (F)     (DEG/KT/KT) (MB)    (MI)  (FT/S)
BOSTON BUOY      0550   40 43  280/ 16/ 17 1002.3          2/11
BUZZARDS BAY     0600   39     300/ 16/ 18 1004.4S
NANTUCKET SOUND  0640                      1003.6
MASS BAY-STELLWA 0604   39 41  320/ 14/ 16 1000.8R  1 7/8  2/ 3
ISLE OF SHOALS   0600   39     280/ 14/ 16 1002.1R
S OF BLOCK IS    0630      44                N/A           5/ 7
$$

......................KEY.........................
  SKY/WX - SKY CONDITION/PRESENT WEATHER
  TMP    - TEMPERATURE IN FAHRENHEIT
  DWPT   - DEWPOINT IN FAHRENHEIT
  RH     - RELATIVE HUMIDITY IN PERCENT
  WIND   - DIRECTION AND SPEED IN MPH
  PRES   - MEAN SEA LEVEL PRESSURE IN INCHES OF HG
  WCI    - WIND CHILL INDEX
  VSB    - VISIBILITY IN MILES
  HX     - HEAT INDEX
  TC     - TEMPERATURE IN CELSIUS
  VRB    - VARIABLE WIND DIRECTION
  N/A    - NOT AVAILABLE
  
      

Other recent Regional Weather Roundups

Tue Jan 28, 6:10am

Tue Jan 28, 6:01am

Tue Jan 28, 5:10am

Tue Jan 28, 5:00am

Tue Jan 28, 4:10am

Tue Jan 28, 4:00am

Tue Jan 28, 3:10am

Tue Jan 28, 3:01am

Tue Jan 28, 2:10am

Tue Jan 28, 1:10am

Tue Jan 28, 1:00am

Tue Jan 28, 12:10am

Tue Jan 28, 12:01am

Mon Jan 27, 11:10pm

Mon Jan 27, 11:00pm

Mon Jan 27, 10:10pm

Mon Jan 27, 10:00pm

Mon Jan 27, 9:10pm

Mon Jan 27, 9:00pm

Mon Jan 27, 8:10pm

Mon Jan 27, 8:01pm

Mon Jan 27, 7:10pm

Mon Jan 27, 7:00pm

Mon Jan 27, 6:10pm

Mon Jan 27, 6:00pm

Mon Jan 27, 5:10pm

Mon Jan 27, 5:00pm

Mon Jan 27, 4:10pm

Mon Jan 27, 4:00pm

Mon Jan 27, 3:10pm

Mon Jan 27, 3:00pm

Mon Jan 27, 2:10pm

Mon Jan 27, 2:00pm

Mon Jan 27, 1:10pm

Mon Jan 27, 1:00pm

Mon Jan 27, 12:10pm

Mon Jan 27, 12:00pm

Mon Jan 27, 11:10am

Mon Jan 27, 11:01am

Mon Jan 27, 10:10am

Mon Jan 27, 10:00am

Mon Jan 27, 9:10am

Mon Jan 27, 9:00am

Mon Jan 27, 8:10am

Mon Jan 27, 8:00am

Mon Jan 27, 7:10am

Mon Jan 27, 7:00am

Mon Jan 27, 6:10am

Mon Jan 27, 6:00am

Mon Jan 27, 5:10am

Mon Jan 27, 5:00am

Mon Jan 27, 4:10am

Mon Jan 27, 4:01am

Mon Jan 27, 3:10am

Mon Jan 27, 3:00am

Mon Jan 27, 2:10am

Mon Jan 27, 2:00am

Mon Jan 27, 1:10am

Mon Jan 27, 1:00am

Mon Jan 27, 12:10am

Mon Jan 27, 12:00am

Sun Jan 26, 11:10pm

Sun Jan 26, 11:00pm

Sun Jan 26, 10:10pm

Sun Jan 26, 10:00pm

Sun Jan 26, 9:10pm

Sun Jan 26, 9:01pm

Sun Jan 26, 8:10pm

Sun Jan 26, 8:00pm

Sun Jan 26, 7:10pm

Sun Jan 26, 7:00pm

Sun Jan 26, 6:10pm

Sun Jan 26, 6:01pm

Sun Jan 26, 5:10pm

Sun Jan 26, 5:01pm

Sun Jan 26, 4:10pm

Sun Jan 26, 4:00pm

Sun Jan 26, 3:10pm

Sun Jan 26, 3:01pm

Sun Jan 26, 2:10pm

Sun Jan 26, 2:01pm

Sun Jan 26, 1:10pm

Sun Jan 26, 1:00pm

Sun Jan 26, 12:10pm

Sun Jan 26, 12:00pm

Sun Jan 26, 11:10am

Sun Jan 26, 11:01am

Sun Jan 26, 10:10am

Sun Jan 26, 10:01am

Sun Jan 26, 9:10am

Sun Jan 26, 9:00am

Sun Jan 26, 8:10am

Sun Jan 26, 8:00am

Sun Jan 26, 7:10am

Sun Jan 26, 7:00am

Sun Jan 26, 6:10am

Sun Jan 26, 6:00am

Sun Jan 26, 5:10am

Sun Jan 26, 5:00am

Sun Jan 26, 4:10am

Sun Jan 26, 4:01am

Sun Jan 26, 3:10am

Sun Jan 26, 3:01am

Sun Jan 26, 2:10am

Sun Jan 26, 2:00am

Sun Jan 26, 1:10am

Sun Jan 26, 1:00am

Sun Jan 26, 12:10am

Sun Jan 26, 12:00am

Sat Jan 25, 11:10pm

Sat Jan 25, 11:00pm

Sat Jan 25, 10:10pm

Sat Jan 25, 10:01pm

Sat Jan 25, 9:10pm

Sat Jan 25, 9:01pm

Sat Jan 25, 8:10pm

Sat Jan 25, 8:01pm

Sat Jan 25, 7:10pm

Sat Jan 25, 7:01pm

Sat Jan 25, 6:10pm

Sat Jan 25, 6:01pm

Sat Jan 25, 5:10pm

Sat Jan 25, 5:01pm

Sat Jan 25, 4:10pm

Sat Jan 25, 4:00pm

Sat Jan 25, 3:10pm

Sat Jan 25, 3:01pm

Sat Jan 25, 2:10pm

Sat Jan 25, 2:00pm

Sat Jan 25, 1:10pm

Sat Jan 25, 1:00pm

Sat Jan 25, 12:10pm

Sat Jan 25, 12:00pm

Sat Jan 25, 11:10am

Sat Jan 25, 11:00am

Sat Jan 25, 10:10am

Sat Jan 25, 10:00am

Sat Jan 25, 9:10am

Sat Jan 25, 9:00am

Sat Jan 25, 8:10am

Sat Jan 25, 8:01am

Sat Jan 25, 7:10am

Sat Jan 25, 7:00am

Meta data:

ID: af3133ac-35a9-4dca-a18a-1416c0718af4
Link: https://api.weather.gov/products/af3133ac-35a9-4dca-a18a-1416c0718af4